Temp
-10 -10 -10 -10 -10 -11 -10 -10 -10 -10 -10 -10 -10 -11 -11 -11 -11 -11 -11 -12 -12 -12 -12 -12 -12 -12 -12 -12 -12 -12 -12 -12 -12 -12 -13 -13 -13 -13 -13 -12 -12 -13 -13
-11 -11 -10 -10 -11 -10 -10 -10 -10 -10 -10 -10 -11 -11 -10 -11 -11 -11 -11 -11 -11 -12 -12 -12 -12 -12 -12 -12 -12 -12 -12 -12 -12 -13 -13 -13 -13 -13 -13 -13 -13 -13 -13
-11 -11 -10 -11 -10 -10 -10 -10 -10 -10 -11 -11 -11 -10 -11 -11 -11 -11 -11 -11 -11 -12 -12 -12 -12 -12 -12 -13 -13 -12 -12 -12 -13 -13 -13 -13 -13 -12 -12 -12 -13 -13 -13
-11 -11 -11 -11 -10 -11 -10 -11 -11 -11 -11 -11 -10 -10 -11 -11 -11 -11 -11 -11 -12 -12 -12 -12 -12 -12 -12 -13 -13 -13 -12 -12 -12 -13 -13 -13 -13 -13 -12 -13 -13 -13 -13
-11 -11 -11 -11 -11 -11 -11 -11 -11 -11 -11 -10 -11 -11 -10 -11 -11 -11 -11 -11 -12 -12 -13 -13 -12 -12 -12 -13 -13 -13 -13 -12 -12 -13 -13 -13 -13 -13 -13 -13 -13 -13 -13
-11 -11 -11 -11 -11 -11 -11 -11 -11 -11 -10 -11 -11 -11 -11 -11 -11 -11 -12 -12 -12 -13 -12 -12 -12 -12 -12 -13 -13 -13 -13 -13 -13 -13 -13 -13 -13 -13 -13 -13 -13 -13 -13
-11 -11 -11 -11 -11 -11 -11 -11 -10 -10 -10 -10 -11 -11 -11 -11 -11 -12 -12 -12 -13 -12 -12 -12 -12 -13 -13 -13 -13 -13 -13 -13 -13 -13 -13 -13 -13 -13 -13 -13 -13 -13 -13
-11 -11 -12 -11 -11 -11 -11 -10 -10 -11 -11 -11 -11 -11 -11 -11 -12 -12 -12 -12 -12 -12 -12 -12 -12 -13 -13 -13 -13 -13 -13 -13 -13 -13 -13 -13 -13 -13 -13 -13 -13 -12 -13
-12 -12 -12 -11 -11 -11 -10 -10 -11 -11 -11 -11 -11 -11 -11 -12 -12 -12 -12 -12 -13 -13 -13 -13 -13 -13 -13 -13 -13 -13 -13 -13 -13 -13 -13 -13 -13 -13 -13 -13 -13 -13 -13
-12 -12 -11 -11 -11 -11 -10 -10 -11 -11 -11 -11 -11 -12 -12 -12 -12 -12 -12 -13 -13 -13 -13 -13 -13 -13 -13 -13 -13 -13 -13 -13 -13 -13 -14 -13 -13 -13 -13 -13 -13 -13 -13
-12 -11 -11 -11 -11 -11 -10 -10 -11 -10 -10 -11 -11 -12 -12 -12 -12 -12 -13 -13 -13 -13 -13 -13 -13 -13 -14 -13 -13 -13 -13 -13 -13 -14 -13 -13 -13 -13 -13 -13 -13 -13 -13
-12 -11 -11 -11 -11 -11 -10 -10 -10 -10 -11 -11 -11 -12 -12 -12 -12 -13 -13 -13 -12 -13 -13 -13 -13 -13 -13 -13 -13 -13 -13 -13 -14 -14 -13 -13 -13 -13 -13 -13 -13 -13 -14
-11 -11 -11 -10 -10 -10 -10 -10 -10 -10 -11 -11 -11 -12 -12 -12 -12 -13 -13 -12 -12 -12 -12 -13 -13 -13 -13 -13 -13 -13 -13 -13 -13 -13 -13 -13 -13 -13 -13 -13 -13 -14 -14
-11 -11 -11 -10 -10 -10 -10 -10 -10 -11 -11 -12 -11 -11 -12 -12 -12 -12 -12 -12 -11 -12 -12 -12 -12 -12 -13 -13 -13 -13 -13 -13 -13 -13 -13 -13 -13 -13 -13 -13 -13 -13 -13
-11 -11 -11 -11 -10 -10 -10 -10 -11 -11 -11 -12 -12 -12 -12 -11 -11 -12 -12 -11 -11 -11 -11 -12 -12 -12 -12 -12 -12 -12 -12 -13 -13 -13 -13 -13 -13 -13 -13 -13 -13 -13 -13
-12 -11 -11 -11 -11 -11 -11 -11 -11 -12 -12 -12 -12 -12 -12 -11 -11 -11 -11 -11 -11 -11 -11 -11 -11 -12 -12 -12 -12 -12 -12 -12 -13 -13 -13 -13 -13 -12 -13 -13 -13 -13 -13
-12 -11 -11 -11 -11 -11 -11 -12 -11 -12 -12 -12 -12 -12 -12 -11 -11 -11 -11 -11 -11 -10 -11 -11 -11 -11 -12 -12 -12 -13 -13 -12 -12 -12 -12 -12 -12 -12 -12 -13 -13 -13 -13
-12 -12 -12 -12 -12 -12 -12 -12 -12 -12 -12 -12 -12 -12 -11 -11 -11 -11 -11 -11 -11 -11 -11 -11 -11 -12 -12 -12 -12 -12 -12 -12 -12 -12 -12 -13 -13 -12 -12 -13 -13 -13 -13
-12 -12 -12 -12 -12 -12 -12 -12 -12 -12 -12 -12 -12 -12 -11 -11 -11 -12 -11 -11 -11 -11 -11 -11 -12 -12 -12 -13 -13 -13 -12 -12 -12 -12 -12 -13 -13 -13 -13 -13 -13 -13 -13
-12 -12 -12 -12 -12 -12 -12 -12 -12 -12 -12 -12 -11 -11 -11 -11 -11 -12 -11 -11 -11 -11 -11 -11 -12 -12 -12 -12 -12 -12 -12 -12 -12 -12 -13 -13 -13 -13 -13 -13 -13 -13 -13
-12 -13 -12 -12 -12 -13 -13 -13 -12 -12 -12 -12 -12 -12 -12 -12 -12 -12 -12 -11 -11 -11 -11 -11 -11 -12 -12 -12 -12 -12 -12 -12 -12 -13 -13 -13 -13 -14 -14 -14 -14 -13 -13
-12 -12 -12 -13 -13 -13 -13 -13 -12 -12 -12 -12 -12 -12 -12 -12 -12 -12 -12 -12 -12 -12 -12 -12 -12 -12 -13 -13 -13 -13 -13 -13 -13 -13 -13 -14 -14 -14 -14 -14 -13 -13 -13
-12 -12 -12 -13 -13 -13 -13 -13 -12 -13 -13 -12 -12 -12 -12 -12 -13 -12 -12 -12 -12 -12 -12 -12 -12 -12 -13 -13 -13 -13 -13 -14 -14 -14 -14 -14 -14 -14 -14 -14 -14 -14 -13
-12 -13 -13 -13 -14 -13 -13 -13 -13 -13 -13 -13 -13 -13 -13 -12 -12 -13 -13 -13 -13 -12 -13 -13 -13 -13 -13 -13 -13 -13 -13 -13 -13 -13 -13 -13 -14 -14 -14 -14 -14 -14 -14
-13 -13 -13 -13 -14 -13 -13 -13 -14 -13 -13 -13 -13 -13 -13 -13 -13 -13 -13 -13 -13 -13 -13 -13 -14 -14 -14 -14 -14 -14 -14 -14 -14 -14 -14 -14 -14 -13 -13 -13 -14 -14 -14
-13 -13 -13 -13 -13 -13 -13 -13 -13 -13 -13 -13 -13 -13 -13 -13 -13 -13 -13 -13 -13 -13 -13 -13 -14 -14 -14 -14 -14 -14 -14 -14 -14 -14 -14 -14 -14 -14 -14 -14 -14 -14 -14
Height
5708 5713 5717 5720 5722 5725 5729 5732 5734 5734 5734 5735 5735 5735 5735 5735 5733 5732 5731 5729 5727 5725 5723 5720 5719 5718 5716 5715 5714 5713 5713 5715 5714 5714 5715 5716 5719 5723 5726 5729 5732 5735 5737
5697 5702 5706 5710 5715 5719 5723 5724 5726 5726 5727 5727 5728 5729 5729 5728 5726 5725 5724 5722 5720 5718 5716 5714 5713 5711 5711 5710 5710 5710 5712 5713 5713 5715 5716 5716 5719 5722 5724 5727 5731 5733 5737
5688 5693 5699 5703 5708 5712 5714 5716 5718 5719 5720 5721 5722 5723 5722 5721 5720 5719 5718 5716 5714 5713 5711 5709 5707 5706 5705 5704 5706 5708 5710 5711 5713 5715 5717 5717 5719 5721 5724 5726 5729 5732 5737
5680 5686 5691 5697 5701 5704 5707 5709 5711 5713 5714 5716 5717 5717 5715 5714 5713 5712 5712 5710 5708 5707 5705 5703 5702 5701 5699 5699 5702 5705 5707 5709 5712 5714 5717 5717 5718 5721 5724 5727 5730 5733 5736
5670 5677 5684 5690 5694 5697 5700 5703 5705 5707 5709 5710 5711 5710 5709 5708 5707 5706 5705 5704 5704 5702 5699 5698 5696 5696 5694 5696 5700 5702 5704 5707 5710 5713 5715 5716 5718 5719 5723 5726 5729 5732 5737
5665 5672 5678 5682 5687 5692 5694 5698 5700 5702 5704 5705 5705 5704 5703 5703 5702 5700 5699 5699 5698 5696 5694 5692 5691 5690 5692 5694 5697 5699 5702 5705 5709 5712 5714 5716 5718 5721 5723 5726 5729 5733 5737
5660 5667 5672 5678 5682 5686 5690 5693 5695 5698 5699 5699 5699 5699 5699 5698 5697 5696 5696 5695 5693 5690 5688 5687 5686 5687 5689 5692 5694 5697 5702 5705 5708 5711 5713 5716 5718 5720 5723 5726 5729 5731 5734
5656 5662 5667 5674 5677 5681 5685 5688 5690 5692 5692 5694 5694 5694 5694 5694 5693 5693 5693 5691 5688 5686 5685 5684 5685 5686 5689 5690 5693 5696 5700 5703 5707 5709 5712 5715 5718 5721 5723 5727 5729 5730 5733
5653 5659 5664 5670 5673 5677 5680 5684 5685 5687 5688 5689 5690 5690 5691 5691 5691 5690 5688 5687 5685 5684 5683 5683 5684 5686 5687 5690 5693 5696 5699 5703 5706 5709 5712 5715 5718 5721 5724 5726 5729 5731 5733
5649 5656 5662 5665 5669 5673 5676 5679 5681 5683 5684 5686 5686 5687 5688 5688 5688 5687 5686 5685 5683 5681 5682 5682 5684 5685 5687 5690 5693 5696 5700 5703 5706 5709 5711 5714 5717 5721 5724 5726 5728 5730 5732
5647 5654 5658 5661 5665 5669 5672 5674 5677 5679 5681 5682 5683 5685 5686 5686 5686 5685 5684 5683 5681 5680 5681 5681 5682 5685 5688 5691 5694 5697 5700 5703 5706 5709 5712 5715 5718 5720 5722 5724 5728 5731 5732
5645 5649 5654 5659 5663 5666 5669 5671 5674 5676 5678 5679 5681 5683 5684 5684 5684 5684 5683 5682 5681 5680 5680 5681 5683 5685 5689 5692 5694 5697 5700 5702 5705 5709 5712 5715 5718 5720 5721 5723 5726 5729 5730
5642 5647 5652 5657 5660 5662 5665 5668 5671 5673 5675 5677 5679 5681 5683 5683 5684 5684 5683 5682 5681 5681 5681 5682 5684 5687 5690 5692 5694 5697 5700 5703 5706 5709 5712 5715 5717 5719 5722 5724 5725 5727 5729
5640 5647 5651 5654 5656 5659 5662 5665 5668 5670 5673 5675 5677 5680 5681 5682 5682 5683 5683 5682 5682 5682 5683 5684 5686 5688 5690 5693 5696 5698 5701 5704 5707 5710 5712 5714 5716 5718 5720 5723 5725 5727 5729
5641 5645 5649 5652 5654 5656 5659 5662 5665 5668 5671 5673 5675 5678 5680 5681 5682 5682 5683 5683 5683 5683 5684 5685 5687 5690 5692 5695 5697 5700 5703 5705 5708 5710 5712 5714 5715 5717 5719 5721 5723 5725 5728
5640 5644 5647 5649 5651 5654 5658 5661 5664 5666 5668 5671 5674 5677 5678 5680 5681 5682 5683 5684 5684 5685 5685 5687 5690 5692 5694 5697 5699 5701 5703 5705 5708 5710 5711 5713 5715 5717 5719 5721 5723 5725 5727
5638 5643 5646 5648 5650 5653 5657 5660 5663 5664 5666 5669 5673 5676 5678 5679 5680 5682 5683 5684 5685 5686 5688 5690 5692 5694 5696 5698 5699 5701 5703 5705 5707 5709 5711 5713 5715 5716 5717 5720 5722 5724 5726
5639 5643 5645 5647 5650 5652 5655 5658 5661 5663 5666 5669 5673 5675 5677 5679 5680 5682 5684 5686 5687 5687 5688 5691 5693 5694 5696 5698 5700 5702 5703 5704 5706 5708 5710 5711 5713 5715 5716 5719 5721 5723 5726
5641 5643 5645 5648 5650 5653 5655 5657 5660 5663 5666 5670 5673 5675 5677 5679 5681 5682 5684 5686 5688 5689 5689 5691 5694 5695 5697 5699 5701 5703 5704 5705 5706 5707 5708 5710 5713 5714 5716 5719 5721 5724 5725
5641 5643 5646 5648 5650 5652 5654 5657 5660 5663 5667 5670 5673 5675 5677 5679 5681 5683 5684 5687 5689 5690 5691 5692 5694 5696 5697 5700 5702 5703 5704 5706 5707 5708 5709 5711 5713 5715 5718 5720 5722 5724 5726
5641 5644 5647 5649 5651 5653 5655 5658 5661 5664 5667 5670 5673 5676 5678 5681 5683 5685 5687 5689 5691 5693 5694 5694 5696 5697 5699 5701 5704 5705 5706 5707 5709 5710 5711 5713 5714 5717 5719 5720 5722 5723 5723
5644 5646 5649 5651 5652 5655 5658 5660 5664 5667 5671 5673 5676 5678 5681 5683 5685 5687 5689 5691 5692 5694 5695 5696 5698 5699 5701 5703 5704 5706 5708 5709 5710 5711 5712 5713 5715 5716 5718 5719 5720 5720 5721
5646 5650 5651 5653 5655 5657 5660 5663 5667 5670 5674 5676 5677 5679 5681 5684 5686 5688 5691 5692 5693 5695 5696 5698 5699 5700 5701 5703 5704 5705 5707 5708 5709 5710 5711 5712 5713 5714 5715 5715 5715 5716 5716
5648 5650 5654 5655 5658 5660 5662 5666 5669 5672 5674 5676 5678 5681 5683 5685 5687 5688 5691 5692 5693 5694 5696 5697 5699 5700 5701 5702 5703 5704 5706 5707 5708 5709 5709 5710 5710 5711 5711 5711 5711 5711 5710
5648 5651 5654 5657 5659 5660 5663 5665 5667 5671 5673 5675 5678 5680 5682 5685 5686 5688 5690 5691 5693 5695 5696 5697 5698 5699 5701 5702 5703 5704 5705 5706 5706 5706 5707 5707 5706 5706 5705 5704 5703 5703 5702
5647 5650 5654 5657 5660 5661 5664 5666 5667 5670 5673 5675 5677 5679 5681 5683 5685 5686 5688 5689 5691 5692 5693 5694 5696 5698 5699 5700 5701 5701 5701 5701 5702 5702 5702 5701 5700 5700 5699 5698 5696 5695 5693
Wind_Speed
39 39 37 37 36 34 33 33 33 31 29 28 26 26 25 25 22 23 27 28 26 24 22 23 21 20 19 20 19 11 7 7 5 6 7 12 13 16 15 19 18 18 18
39 37 38 38 37 34 30 30 30 29 27 26 26 25 23 21 21 24 23 23 23 21 22 20 20 20 19 19 16 10 10 8 6 4 7 12 12 14 9 21 19 17 20
42 41 40 38 33 30 29 29 27 27 25 24 24 22 20 21 23 23 23 24 23 21 21 21 20 22 23 22 16 12 14 11 10 9 11 12 15 16 13 17 17 18 21
40 36 33 28 27 27 26 25 26 23 22 22 20 19 21 23 24 24 24 24 22 21 21 20 20 17 18 14 15 13 15 13 12 10 12 13 14 13 14 17 15 19 22
36 31 25 26 26 24 25 23 23 23 21 19 19 21 23 23 23 22 21 21 19 20 19 21 18 16 14 14 15 17 16 17 14 14 13 12 15 18 19 18 17 21 23
30 27 25 25 24 24 24 23 22 22 19 19 20 20 19 20 21 20 18 16 18 19 21 20 17 17 15 16 15 20 18 17 18 17 14 13 18 17 18 19 20 20 22
30 29 27 27 26 24 22 22 23 20 19 18 16 15 16 15 14 13 13 16 15 18 16 12 11 10 13 14 14 17 19 17 18 16 13 15 16 17 18 19 20 22 24
30 29 27 26 24 21 22 22 21 18 16 13 13 14 12 12 11 11 12 12 14 11 9 7 8 11 13 14 13 17 17 18 17 15 16 16 15 16 18 19 20 18 19
30 28 26 23 21 22 21 20 18 15 13 11 12 13 11 9 9 9 8 13 10 5 4 5 8 11 11 11 16 14 18 19 16 16 18 18 17 16 18 19 17 19 18
27 23 23 22 22 21 20 17 15 14 12 12 12 8 9 8 7 5 8 8 8 5 4 6 9 11 11 14 19 17 16 17 16 16 19 21 20 17 16 16 17 16 21
25 24 22 21 20 19 17 14 13 14 14 12 8 8 8 6 2 4 4 6 6 4 7 11 11 11 13 13 14 12 14 16 18 17 18 18 19 18 17 16 17 15 16
23 21 20 20 19 17 14 13 15 14 14 10 9 9 6 3 1 1 4 6 3 5 10 12 11 12 12 12 11 12 12 13 15 15 15 15 17 19 20 20 16 13 11
22 20 19 18 15 16 16 15 15 14 14 11 12 10 5 4 3 2 3 5 2 6 10 11 10 12 12 12 11 12 14 14 14 15 15 15 14 14 16 15 17 14 12
20 20 17 13 13 14 15 15 14 15 14 12 13 11 5 5 5 2 2 4 4 7 9 10 11 13 13 11 11 13 13 13 13 14 14 14 14 14 15 14 13 15 13
19 15 13 13 12 12 13 13 15 14 12 14 13 11 7 7 5 4 2 5 5 8 10 9 10 11 12 11 12 11 12 13 14 15 13 11 10 13 16 18 15 19 17
17 15 14 12 12 13 12 13 13 13 13 15 14 12 10 7 5 6 4 5 7 8 10 10 10 10 11 11 11 10 10 11 12 11 12 9 9 9 11 15 16 17 15
16 14 11 11 12 14 13 13 11 9 15 20 16 13 10 7 7 8 8 6 8 10 11 12 12 12 11 11 10 10 10 11 12 13 12 10 8 6 13 16 13 15 16
14 11 9 11 12 14 13 13 13 13 13 15 14 12 8 10 7 10 10 6 7 10 11 11 10 10 9 9 9 8 8 10 12 13 13 10 10 10 12 15 17 18 19
12 11 12 12 10 10 11 13 14 13 14 15 12 10 11 10 9 11 11 8 7 10 14 13 11 12 11 10 11 11 9 8 9 13 13 13 13 12 14 17 19 19 18
14 11 12 12 11 11 11 13 16 16 16 14 11 10 11 12 11 12 11 10 9 9 13 15 14 13 12 13 10 7 8 8 11 13 14 12 13 16 16 15 17 17 16
14 11 11 13 13 12 14 16 17 17 15 13 12 11 12 12 11 9 9 9 9 8 9 9 10 11 10 9 6 7 9 10 9 9 9 10 11 16 19 17 18 19 19
16 13 13 13 14 15 14 16 15 14 13 13 12 11 10 9 9 9 10 9 10 9 8 9 10 9 8 7 6 8 8 7 6 7 7 7 9 12 16 18 20 21 22
16 13 14 14 13 14 14 16 16 16 13 12 12 13 15 16 14 12 11 10 10 11 9 7 7 7 8 8 7 8 10 10 10 10 9 8 8 9 11 15 18 20 23
16 15 12 13 13 14 13 14 14 14 14 14 13 12 10 11 14 13 11 10 10 10 10 7 8 9 10 10 11 10 10 10 9 8 8 9 11 13 15 17 20 23 24
13 15 12 10 12 12 13 16 16 15 15 14 14 14 15 13 11 11 11 9 7 6 7 8 8 8 8 8 7 8 9 9 10 11 12 14 16 17 19 20 22 25 26
17 14 13 14 12 14 14 15 16 16 17 16 16 17 16 15 15 15 14 12 10 10 10 9 8 8 8 8 9 10 10 11 13 15 17 19 21 24 26 28 31 33 35
Wind_Direction
244 246 243 248 255 262 257 254 254 256 258 260 267 271 266 268 271 274 275 274 273 279 284 287 286 281 281 289 297 271 249 238 220 205 222 203 176 178 180 188 176 180 173
233 237 239 246 252 255 248 246 248 251 254 261 265 260 261 265 274 275 281 275 276 281 286 288 285 284 281 275 294 239 211 185 159 191 178 181 181 162 177 202 183 176 175
223 227 232 241 246 244 240 242 244 245 252 255 254 256 259 267 268 271 275 274 282 286 284 288 292 290 284 275 261 214 205 194 215 192 188 182 180 186 175 168 177 179 174
218 224 233 237 232 231 234 237 239 244 247 249 251 253 263 266 268 272 271 275 282 283 287 285 291 279 280 260 217 200 200 193 193 196 192 198 196 190 183 168 168 172 174
212 219 221 220 221 226 227 230 237 239 243 245 248 260 267 270 271 273 275 275 277 282 281 288 286 271 267 218 206 197 198 198 202 198 201 202 180 159 166 171 173 173 179
206 207 211 212 218 219 227 229 237 235 231 238 252 258 266 272 273 272 273 277 283 283 281 277 280 266 230 204 205 207 196 192 195 191 198 191 178 173 175 176 176 176 181
197 201 204 208 215 220 227 232 230 224 230 246 249 259 269 272 267 263 267 280 287 290 279 274 268 214 203 188 204 208 194 194 199 194 197 194 183 179 180 183 182 183 188
193 196 202 207 213 219 223 218 218 226 239 237 249 260 261 260 255 262 278 289 297 283 266 273 198 181 191 196 191 180 191 189 189 192 187 183 184 186 182 181 182 179 185
188 191 198 207 211 213 211 208 217 230 223 230 250 253 254 247 260 279 295 306 309 277 274 218 196 191 176 181 179 176 178 176 175 173 177 180 179 180 180 178 182 179 182
183 192 201 205 203 202 204 209 219 210 220 230 247 237 234 247 276 291 302 307 310 264 248 191 192 184 178 176 182 178 177 180 180 178 181 183 182 178 177 185 185 191 194
185 194 196 191 193 199 201 208 205 217 221 230 224 207 233 257 275 309 313 325 331 202 189 171 180 173 168 162 156 161 178 181 185 188 187 188 189 182 180 182 188 192 204
180 181 182 189 193 195 200 204 214 215 213 216 202 198 227 208 284 254 354 359 351 171 179 170 168 165 172 169 172 176 178 178 182 188 189 197 203 198 194 188 188 185 179
170 177 183 189 190 197 205 211 215 208 204 199 190 196 213 180 185 176 23 15 56 147 164 167 158 168 171 172 167 167 170 175 177 179 187 194 201 211 205 199 195 191 188
172 177 179 184 194 204 207 212 214 202 199 191 191 199 194 195 192 213 49 57 78 133 132 143 151 164 172 169 169 165 164 171 174 180 188 189 195 204 205 188 188 184 193
172 172 181 185 196 202 203 205 191 189 190 186 192 197 192 200 220 207 103 80 103 128 130 135 143 156 161 163 169 172 172 179 178 176 176 180 191 192 185 190 195 201 198
169 177 182 194 198 193 186 180 178 190 192 190 195 190 190 197 201 192 142 100 119 118 126 128 135 146 155 162 168 175 180 179 176 181 188 178 173 187 196 202 206 200 206
168 178 186 189 184 176 184 177 173 165 179 192 188 181 182 191 181 181 155 118 135 142 134 128 137 142 146 152 162 173 181 185 189 190 191 191 195 197 206 205 202 196 187
170 173 170 168 174 179 186 184 177 170 165 172 174 172 184 176 170 166 162 133 143 145 143 149 153 158 155 154 157 170 190 199 193 191 194 198 191 175 173 180 184 182 182
158 154 159 163 166 175 173 169 173 169 166 168 173 171 173 174 168 163 167 161 157 158 155 154 155 151 155 157 150 149 153 162 178 194 196 183 183 181 179 185 184 184 190
149 150 145 150 152 153 162 163 160 158 158 162 167 166 168 167 164 161 159 157 140 143 153 156 160 162 168 167 162 173 182 181 175 166 165 172 174 173 179 187 193 204 211
136 133 142 140 145 141 143 146 148 150 152 153 157 164 169 161 154 155 143 137 118 112 127 141 158 167 172 173 186 173 157 153 150 154 167 182 194 197 207 209 213 226 229
145 146 141 134 149 149 149 148 147 140 140 143 142 140 131 128 137 143 140 143 134 127 130 138 141 147 154 159 161 153 160 166 172 175 180 190 205 215 222 226 232 237 242
150 145 148 147 148 148 151 154 141 134 133 137 138 138 141 141 140 143 147 150 150 148 152 162 165 168 173 168 173 183 194 204 212 217 224 227 226 227 237 241 245 249 252
159 146 150 146 156 152 155 150 148 147 150 152 149 149 154 158 158 157 160 167 173 169 165 178 186 187 188 190 190 195 210 222 221 220 225 227 236 250 255 258 264 265 265
174 164 153 161 161 155 166 164 164 168 169 171 170 171 170 167 168 171 173 186 191 195 194 189 190 209 209 201 209 215 222 237 247 257 264 271 277 280 280 279 278 279 279
182 176 176 182 188 178 177 183 178 178 178 182 183 189 189 190 190 190 193 200 206 212 212 216 216 222 229 233 241 250 254 258 262 267 270 271 272 275 278 280 281 281 281